SCP
0 0 0 0 0 0 0 0 0 0 0 0 0 0 0 0 0 0 0 0 0 0 0 0 0 0 0 0 0 0 0 0 0 0 0 0 0 0 0 0 0 0 0 0
0 0 0 0 0 0 0 0 0 0 0 0 0 0 0 0 0 0 0 0 0 0 0 0 0 0 0 0 0 0 0 0 0 0 0 0 0 0 0 0 0 0 0 0
0 0 0 0 0 0 0 -0 -0 0 0 0 0 0 0 0 0 0 0 0 0 0 0 0 0 0 0 0 0 0 0 0 0 0 0 0 0 0 0 0 0 0 0 0
0 0 0 0 0 0 0 -0 -0 0 0 0 0 0 0 0 0 0 0 0 0 0 0 0 0 0 0 0 0 0 0 0 0 0 0 0 0 0 0 0 0 0 0 0
0 0 0 0 0 0 0 0 0 0 0 0 0 0 0 0 0 0 0 0 0 0 0 0 0 0 0 0 0 0 0 0 0 0 0 0 0 0 0 0 0 0 0 0
0 0 0 0 -0 0 0 0 0 0 0 0 0 0 0 0 0 0 0 0 0 0 0 0 0 0 0 0 0 0 0 0 0 0 0 0 0 0 0 0 0 0 0 0
0 0 0 0 0 0 0 0 0 0 0 0 0 0 0 0 0 0 0 0 0 0 0 0 0 0 0 0 0 0 0 0 0 0 0 0 0 0 0 0 0 0 0 0
0 0 0 0 0 0 0 0 0 0 0 0 0 0 0 0 0 0 0 0 0 0 0 0 0 0 0 0 0 0 0 0 0 0 0 0 0 0 0 0 0 0 0 0
0 0 0 0 0 0 0 0 0 0 0 0 0 0 0 0 0 0 0 0 0 0 0 0 0 0 0 0 0 0 0 0 0 0 0 0 0 0 0 0 0 0 0 0
0 0 0 0 0 0 0 0 0 0 0 0 0 0 0 0 0 0 0 0 0 0 0 0 0 0 0 0 0 0 0 0 0 0 0 0 0 0 0 0 0 0 0 0
0 0 0 0 0 0 0 0 0 0 0 0 0 0 0 0 0 0 0 0 0 0 0 0 0 0 0 0 0 0 0 0 0 0 0 0 0 0 0 0 0 0 0 0
0 0 0 0 0 0 0 0 0 0 0 0 0 0 0 0 0 0 0 0 0 0 0 0 0 0 0 0 0 0 0 0 0 0 0 0 0 0 0 0 0 0 0 0
0 0 0 0 0 0 0 0 0 0 0 0 0 0 0 0 0 0 0 0 0 0 0 0 0 0 0 0 0 0 0 0 0 0 0 0 0 0 0 0 0 0 0 0
0 0 0 0 0 0 0 0 0 0 0 0 0 0 0 0 0 0 0 0 0 0 0 0 0 0 0 0 0 0 0 0 0 0 0 0 0 0 0 0 0 0 0 0
0 0 0 0 0 0 0 0 0 0 0 0 0 0 0 0 0 0 0 0 0 0 0 0 0 0 0 0 0 0 0 0 0 0 0 0 0 0 0 0 0 0 0 0
0 0 0 0 0 0 0 0 0 0 0 0 0 0 0 0 0 0 0 0 0 0 0 0 0 0 0 -0 -0 0 0 0 0 0 0 0 0 0 0 0 0 0 0 0
0 0 0 0 0 0 0 0 0 0 0 0 0 0 0 0 0 0 0 0 0 0 0 0 0 0 0 0 -0 -0 0 0 0 0 0 0 0 0 0 0 0 0 0 0
0 0 0 0 0 0 0 0 0 0 0 0 0 0 0 0 0 0 0 0 0 0 0 0 0 0 0 0 0 -0 0 0 0 0 0 0 0 0 0 0 0 0 0 0
0 0 0 0 0 0 0 0 0 0 0 0 0 0 0 0 0 0 0 0 0 0 0 0 0 0 0 0 0 0 0 0 0 0 0 0 0 0 0 0 0 0 0 0
0 0 0 0 0 0 0 0 0 0 0 0 0 0 0 0 0 0 0 0 0 0 0 0 0 0 0 0 0 0 -0 0 0 0 0 0 0 0 0 0 0 0 0 0
0 0 0 0 0 0 0 0 0 0 0 0 0 0 0 0 0 0 0 0 0 0 0 0 0 0 0 0 0 0 0 0 0 0 0 0 0 0 0 0 0 0 0 0
0 0 0 0 0 0 0 0 0 0 0 0 0 0 0 0 0 0 0 0 0 0 0 0 0 0 0 0 0 0 0 0 0 0 0 0 0 0 0 0 0 0 0 0
0 0 0 0 0 0 0 0 0 0 0 0 0 0 0 0 0 0 0 0 0 0 0 0 0 0 0 0 0 0 0 0 0 0 0 0 0 0 0 0 0 0 0 0
0 0 0 0 0 0 0 0 0 0 0 0 0 0 0 0 0 0 0 0 0 0 0 0 0 0 0 0 0 0 0 0 0 0 0 0 0 0 0 0 0 0 0 0
0 0 0 0 0 0 0 0 0 0 0 0 0 0 -0 0 0 0 0 0 0 0 0 0 0 0 0 0 0 0 0 0 0 0 0 0 0 0 0 0 0 0 0 0
0 0 0 0 0 0 0 0 0 0 0 0 0 0 0 0 0 0 0 0 0 0 0 0 0 0 0 0 0 0 0 0 0 0 0 0 0 0 0 0 0 0 0 0
0 0 0 0 0 0 0 0 0 0 0 0 0 0 0 0 0 0 0 0 0 0 0 0 0 0 0 0 0 0 0 0 0 0 0 0 0 0 0 0 0 0 0 0
Wind_Speed
2 2 2 2 2 4 4 6 7 6 6 7 6 5 4 3 3 2 3 3 4 4 4 5 5 5 5 6 6 6 6 7 7 7 7 7 7 8 7 7 7 6 7 7
2 2 1 1 1 3 3 3 3 2 6 5 2 3 3 4 4 4 5 5 5 5 5 5 5 5 6 6 6 6 7 7 8 8 8 8 8 8 7 7 7 6 6 7
1 2 3 3 4 5 4 4 6 7 7 3 3 5 6 6 6 6 6 6 5 5 5 5 5 5 6 6 6 6 7 8 8 8 8 8 8 8 8 7 7 7 7 6
3 2 3 8 3 5 4 4 6 5 4 5 6 4 4 5 6 7 6 5 5 4 5 5 4 5 5 6 6 7 7 8 8 8 8 8 8 8 7 6 6 6 7 7
4 2 5 5 3 6 5 5 6 6 5 3 2 3 4 5 6 7 6 5 4 4 4 4 5 5 5 6 6 7 7 8 8 8 8 8 8 8 7 6 7 6 6 6
4 3 5 8 3 5 4 5 6 8 7 5 6 1 6 5 6 6 5 3 3 3 3 4 5 4 4 6 6 7 8 8 8 7 7 8 8 7 6 6 7 7 7 6
4 4 8 6 4 7 3 9 5 9 8 9 9 8 5 3 4 4 4 4 3 3 3 4 4 3 5 6 7 7 8 8 8 7 7 7 6 5 6 6 6 6 6 6
5 3 8 4 9 9 10 3 5 7 8 9 8 5 3 4 5 4 4 4 3 3 4 4 4 3 5 6 7 7 7 7 7 7 6 6 6 6 6 5 6 6 6 6
9 8 6 6 8 6 5 5 6 7 7 8 7 6 5 5 5 5 5 5 3 3 4 5 4 3 5 6 6 7 7 7 7 7 6 6 5 6 6 5 4 5 4 5
3 7 5 5 4 4 5 6 6 7 8 9 8 7 7 5 5 5 5 4 3 3 4 5 4 4 5 6 6 6 7 7 7 7 7 7 5 4 4 4 4 4 4 5
4 6 3 4 6 7 5 4 5 5 7 9 8 7 7 6 6 6 5 4 3 4 4 6 5 5 5 5 4 5 6 6 6 6 6 6 6 5 5 4 4 4 4 4
7 8 7 7 6 8 8 7 8 8 6 5 7 8 7 7 6 5 5 4 3 4 5 5 5 5 5 4 4 4 5 6 5 5 5 5 6 6 6 6 8 8 8 6
6 3 5 4 4 7 8 8 8 9 9 7 6 7 7 6 5 5 5 5 5 5 5 5 5 5 5 4 4 4 5 6 5 5 5 5 5 5 7 7 6 6 6 6
4 3 2 4 5 7 7 7 7 6 6 6 6 6 5 5 4 6 7 7 6 5 5 4 5 6 5 4 4 5 5 6 5 5 5 5 5 5 4 5 6 6 5 6
3 3 4 2 2 4 4 5 5 5 5 5 5 6 6 7 7 7 6 5 4 4 5 4 5 6 4 4 4 5 5 4 4 4 4 4 4 4 4 5 5 5 5 5
2 1 2 2 3 4 5 6 7 8 7 6 6 7 7 7 6 6 5 5 5 6 6 5 6 5 4 3 4 4 4 7 6 4 4 4 4 4 4 5 5 5 5 5
3 1 1 1 2 3 5 6 7 7 6 7 8 7 5 5 5 6 6 6 7 6 6 6 6 5 4 3 3 3 4 5 7 5 4 4 4 4 4 4 5 5 5 5
4 4 4 4 4 4 4 4 4 5 6 7 6 5 6 7 8 9 7 5 4 5 6 7 6 4 4 4 3 3 3 3 3 4 4 4 4 4 4 4 5 5 5 5
2 2 2 2 1 2 2 3 3 4 4 4 6 7 8 8 8 7 5 4 6 7 7 6 6 5 4 4 4 2 3 3 3 3 3 4 4 4 4 4 5 5 5 4
7 6 5 5 4 3 1 1 1 1 2 3 4 5 6 7 7 6 5 6 8 7 5 4 5 4 4 4 4 2 3 3 3 3 3 3 4 4 4 4 4 5 4 4
7 7 7 6 4 4 3 2 1 2 2 2 4 6 7 7 6 5 5 7 7 6 6 6 5 4 4 3 3 3 3 2 2 3 3 3 4 4 4 4 4 4 4 4
7 7 7 6 5 5 4 3 2 2 2 2 4 5 5 6 5 5 7 7 6 6 5 4 5 5 5 4 3 3 3 2 2 2 2 3 3 3 4 4 4 4 3 3
4 4 5 4 4 3 4 4 3 3 4 5 5 7 7 7 5 5 7 6 5 7 6 5 6 7 7 4 3 3 3 3 2 2 2 3 3 3 3 3 3 3 3 3
3 4 4 3 3 3 4 5 4 4 5 5 6 6 6 5 5 6 6 5 7 7 6 6 9 9 7 4 3 3 3 3 3 2 2 2 2 2 2 2 2 2 3 4
4 3 3 4 3 3 4 5 5 4 4 4 6 6 5 5 6 5 4 6 7 7 5 7 9 9 6 4 4 4 3 3 3 2 2 1 1 2 2 2 2 2 2 3
3 3 3 3 3 3 3 3 3 4 4 4 5 5 4 4 5 4 4 5 6 6 5 4 5 6 5 4 4 4 4 3 3 2 2 1 1 1 1 1 2 2 2 2
3 2 2 3 3 3 3 3 3 4 4 4 5 5 5 4 3 3 4 4 4 4 4 4 4 4 4 4 4 4 3 2 2 2 2 1 1 0 0 0 1 1 2 2
Wind_Direction
225 239 187 204 187 168 173 178 183 232 232 248 234 219 214 212 217 232 256 271 279 286 291 298 305 308 309 307 310 314 314 310 303 301 301 301 301 300 297 293 293 287 287 285
16 21 96 137 190 156 163 173 202 237 257 251 204 155 196 214 219 237 256 266 277 284 291 296 298 301 304 303 307 312 309 305 304 306 308 307 306 305 304 301 298 295 290 288
233 332 43 265 222 190 198 198 175 206 239 208 196 209 216 219 223 236 250 261 267 274 278 283 286 289 293 296 305 310 307 307 308 309 309 308 311 313 309 305 302 302 296 291
124 94 235 250 261 181 184 220 204 218 227 201 214 223 228 210 212 234 247 256 263 269 277 280 282 291 295 300 305 307 307 308 310 312 311 312 313 311 307 303 302 299 297 294
121 171 277 285 205 157 162 251 216 206 217 184 111 50 302 232 211 222 235 241 246 252 261 275 287 293 304 306 309 309 309 311 312 313 313 314 315 311 307 305 306 303 299 297
126 154 237 252 221 153 110 278 226 189 192 164 123 146 263 236 208 226 239 240 243 260 272 280 285 296 302 303 308 308 308 308 308 308 307 308 307 304 303 303 301 304 302 299
151 201 256 246 145 126 167 246 210 182 181 167 180 203 230 212 199 212 225 234 239 254 266 272 284 297 296 299 298 299 304 306 308 309 306 301 302 302 308 311 312 313 309 307
145 186 257 193 141 179 211 205 165 175 178 183 206 222 222 208 211 215 224 236 236 247 270 279 285 287 292 293 293 303 307 308 310 311 310 314 312 311 314 316 319 321 321 321
184 210 238 196 198 207 163 165 179 179 186 183 192 212 209 210 216 223 226 234 237 241 271 286 283 270 282 288 302 310 312 311 311 314 313 312 311 314 317 319 317 318 321 319
240 265 253 229 219 187 182 182 182 177 172 171 188 204 205 210 216 224 231 235 235 243 268 282 288 284 271 287 301 307 310 311 313 316 319 322 315 305 304 309 314 316 318 315
256 273 290 262 215 193 180 166 156 163 175 182 187 198 200 207 216 220 227 231 226 234 255 272 287 291 291 296 304 309 309 310 315 316 316 319 316 299 291 277 261 276 289 287
222 223 198 233 216 176 170 182 177 171 181 190 190 198 197 206 213 214 221 224 230 242 253 269 283 288 294 299 298 303 308 313 314 316 317 318 319 319 295 275 282 271 259 262
229 220 202 242 194 177 182 187 180 180 184 191 198 194 192 202 210 211 220 222 227 236 247 262 275 283 291 299 300 295 295 301 306 311 315 319 321 322 323 323 311 302 298 293
223 160 207 213 203 191 185 180 172 181 188 187 185 184 186 196 204 212 222 224 225 231 245 253 265 276 285 296 299 299 299 300 306 304 308 311 312 311 310 317 323 325 322 316
225 201 213 218 171 162 157 144 156 186 191 192 185 186 189 197 211 222 226 222 220 235 248 251 263 274 286 294 298 301 302 302 305 304 306 307 308 311 314 315 314 313 318 324
276 35 77 118 163 160 155 172 187 203 199 198 199 204 204 206 215 225 223 205 205 231 243 245 255 265 280 287 296 300 300 307 314 308 312 317 319 321 324 325 325 324 323 323
104 95 178 207 199 186 190 196 202 204 200 205 211 205 197 202 219 233 233 222 220 234 239 238 248 262 269 272 281 289 297 307 318 318 313 313 316 316 316 317 318 318 317 319
194 194 174 173 179 192 211 213 209 203 206 213 200 184 193 202 217 229 231 224 230 249 249 241 243 255 264 268 269 273 285 295 305 307 310 315 317 313 314 317 321 322 324 330
22 35 53 71 127 164 191 211 224 222 215 192 188 203 212 218 224 231 221 209 223 244 251 235 234 238 252 264 276 269 282 295 305 307 310 317 322 325 325 326 326 327 330 335
33 38 46 40 35 40 9 304 255 235 224 197 200 216 228 232 227 223 213 223 230 230 230 222 219 227 239 254 270 261 268 280 294 306 314 318 320 322 325 328 330 331 334 338
30 35 43 45 39 34 27 10 354 307 288 211 213 231 239 242 228 210 211 240 248 226 225 226 221 225 228 239 257 250 254 265 282 295 305 309 313 318 322 327 331 332 334 339
26 29 28 30 32 20 10 14 353 306 283 250 246 249 253 255 243 228 226 234 243 212 206 216 218 222 225 229 227 237 245 252 267 280 291 299 307 313 317 323 326 331 334 336
15 15 15 11 358 337 343 346 332 310 288 271 257 248 243 243 228 221 250 242 228 216 209 214 216 219 221 216 216 226 237 244 254 268 282 291 298 303 309 318 323 330 335 339
352 352 345 336 346 355 326 304 296 283 277 273 264 255 248 254 255 238 241 240 219 212 214 215 213 215 211 207 212 220 227 235 243 254 269 282 293 302 309 317 326 334 340 346
332 334 341 343 339 312 290 296 305 305 304 295 289 277 255 236 242 253 241 233 221 212 220 217 211 208 201 201 212 220 223 227 232 237 249 268 294 309 314 320 326 336 347 351
324 317 306 288 276 279 289 300 304 303 304 304 302 295 285 270 258 252 242 233 221 213 213 211 201 199 199 201 210 214 215 216 217 217 224 238 262 289 310 322 337 349 356 2
320 321 321 325 315 299 294 293 292 293 292 290 293 296 299 290 272 258 247 236 224 216 212 206 197 196 198 200 201 200 200 202 208 207 209 216 220 236 268 326 9 15 16 22